2023/04/18 00:00:00, 0.6, 6.0
2023/04/18 00:10:00, 0.7, 6.2
2023/04/18 00:20:00, 0.6, 6.2
2023/04/18 00:30:00, 0.5, 6.3
2023/04/18 00:40:00, 0.5, 6.3
2023/04/18 00:50:00, 0.5, 6.4
2023/04/18 01:00:00, 0.6, 7.0
2023/04/18 01:10:00, 0.6, 7.2
2023/04/18 01:20:00, 0.5, 7.3
2023/04/18 01:30:00, 0.5, 6.8
2023/04/18 01:40:00, 0.5, 7.3
2023/04/18 01:50:00, 0.5, 7.2
2023/04/18 02:00:00, 0.5, 7.2
2023/04/18 02:10:00, 0.4, 7.5
2023/04/18 02:20:00, 0.4, 7.4
2023/04/18 02:30:00, 0.4, 7.4
2023/04/18 02:40:00, 0.4, 7.1
2023/04/18 02:50:00, 0.4, 7.1
2023/04/18 03:00:00, 0.4, 6.8
2023/04/18 03:10:00, 0.4, 6.7
2023/04/18 03:20:00, 0.4, 6.2
2023/04/18 03:30:00, 0.5, 6.1
2023/04/18 03:40:00, 0.5, 6.3
2023/04/18 03:50:00, 0.5, 6.2
2023/04/18 04:00:00, 0.5, 6.5
2023/04/18 04:10:00, 0.4, 6.6
2023/04/18 04:20:00, 0.5, 6.3
2023/04/18 04:30:00, 0.4, 6.7
2023/04/18 04:40:00, 0.4, 6.7
2023/04/18 04:50:00, 0.4, 6.5
2023/04/18 05:00:00, 0.5, 6.8
2023/04/18 05:10:00, 0.5, 7.3
2023/04/18 05:20:00, 0.5, 7.6
2023/04/18 05:30:00, 0.5, 9.3
2023/04/18 05:40:00, 0.4, 8.8
2023/04/18 05:50:00, 0.4, 9.3
2023/04/18 06:00:00, 0.4, 9.8
2023/04/18 06:10:00, 0.2, 9.6
2023/04/18 06:20:00, 0.1,10.2
2023/04/18 06:30:00, 0.1,10.0
2023/04/18 06:40:00, 0.1,10.1
2023/04/18 06:50:00, 0.1,10.6
2023/04/18 07:00:00, 0.1,10.9
2023/04/18 07:10:00, 0.0,11.2
2023/04/18 07:20:00, 0.0,11.5
2023/04/18 07:30:00, 0.0,11.8
2023/04/18 07:40:00, 0.0,12.4
2023/04/18 07:50:00, 0.0,13.2
2023/04/18 08:00:00, 0.0,12.9
2023/04/18 08:10:00, 0.0,12.8
2023/04/18 08:20:00, 0.0,12.4
2023/04/18 08:30:00, 0.0,12.5
2023/04/18 08:40:00, 0.0,12.8
2023/04/18 08:50:00, 0.0,12.6
2023/04/18 09:00:00, 0.0,13.1
2023/04/18 09:10:00, 0.0,14.3
2023/04/18 09:20:00, 0.0,15.3
2023/04/18 09:30:00, 0.0,15.3
2023/04/18 09:40:00, 0.0,15.3
2023/04/18 09:50:00, 0.0,15.2
2023/04/18 10:00:00, 0.0,16.0
2023/04/18 10:10:00, 0.0,16.7
2023/04/18 10:20:00, 0.0,16.1
2023/04/18 10:30:00, 0.0,16.1
2023/04/18 10:40:00, 0.0,16.1
2023/04/18 10:50:00, 0.0,15.7
2023/04/18 11:00:00, 0.0,16.3
2023/04/18 11:10:00, 0.0,17.1
2023/04/18 11:20:00, 0.0,17.0
2023/04/18 11:30:00, 0.0,16.5
2023/04/18 11:40:00, 0.0,16.8
2023/04/18 11:50:00, 0.0,17.0
2023/04/18 12:00:00, 0.0,16.4
2023/04/18 12:10:00, 0.0,17.3
2023/04/18 12:20:00, 0.0,18.2
2023/04/18 12:30:00, 0.0,18.3
2023/04/18 12:40:00, 0.0,18.6
2023/04/18 12:50:00, 0.0,19.2
2023/04/18 13:00:00, 0.0,19.3
2023/04/18 13:10:00, 0.0,18.4
2023/04/18 13:20:00, 0.0,17.8
2023/04/18 13:30:00, 0.0,17.9
2023/04/18 13:40:00, 0.0,18.0
2023/04/18 13:50:00, 0.0,18.0
2023/04/18 14:00:00, 0.0,17.8
2023/04/18 14:10:00, 0.0,18.1
2023/04/18 14:20:00, 0.0,19.2
2023/04/18 14:30:00, 0.0,19.0
2023/04/18 14:40:00, 0.0,18.3
2023/04/18 14:50:00, 0.0,18.1
2023/04/18 15:00:00, 0.2,16.3
2023/04/18 15:10:00, 1.3,14.8
2023/04/18 15:20:00, 1.6,13.6
2023/04/18 15:30:00, 1.4,13.8
2023/04/18 15:40:00, 1.3,14.1
2023/04/18 15:50:00, 1.4,14.0
2023/04/18 16:00:00, 1.1,13.6
2023/04/18 16:10:00, 0.5,13.7
2023/04/18 16:20:00, 0.2,14.5
2023/04/18 16:30:00, 0.0,16.4
2023/04/18 16:40:00, 0.0,16.0
2023/04/18 16:50:00, 0.0,15.9
2023/04/18 17:00:00, 0.8,14.9
2023/04/18 17:10:00, 0.8,15.6
2023/04/18 17:20:00, 0.1,17.9
2023/04/18 17:30:00, 0.0,17.6
2023/04/18 17:40:00, 0.0,17.2
2023/04/18 17:50:00, 0.0,16.7
2023/04/18 18:00:00, 0.0,16.6
2023/04/18 18:10:00, 0.0,15.7
2023/04/18 18:20:00, 0.0,15.3
2023/04/18 18:30:00, 0.0,15.5
2023/04/18 18:40:00, 0.0,14.9
2023/04/18 18:50:00, 0.0,15.2
2023/04/18 19:00:00, 0.1,15.9
2023/04/18 19:10:00, 0.8,15.0
2023/04/18 19:20:00, 0.3,16.2
2023/04/18 19:30:00, 0.1,16.4
2023/04/18 19:40:00, 0.0,16.2
2023/04/18 19:50:00, 0.0,16.3
2023/04/18 20:00:00, 0.1,16.2
2023/04/18 20:10:00, 0.0,16.3
2023/04/18 20:20:00, 0.0,16.1
2023/04/18 20:30:00, 0.0,16.2
2023/04/18 20:40:00, 0.0,16.1
2023/04/18 20:50:00, 0.0,16.2
2023/04/18 21:00:00, 0.0,16.5
2023/04/18 21:10:00, 0.0,16.4
2023/04/18 21:20:00, 0.0,16.6
2023/04/18 21:30:00, 0.0,16.7
2023/04/18 21:40:00, 0.0,16.4
2023/04/18 21:50:00, 0.0,15.9
2023/04/18 22:00:00, 0.7,15.8
2023/04/18 22:10:00, 1.2,13.9
2023/04/18 22:20:00, 0.0,12.9
2023/04/18 22:30:00, 0.0,13.1
2023/04/18 22:40:00, 0.0,12.9
2023/04/18 22:50:00, 0.0,13.1
2023/04/18 23:00:00, 0.0,12.9
2023/04/18 23:10:00, 0.0,12.9
2023/04/18 23:20:00, 0.0,12.9
2023/04/18 23:30:00, 0.0,13.2
2023/04/18 23:40:00, 0.0,12.8
2023/04/18 23:50:00, 0.0,13.0
